CAPE
0 0 0 0 0 0 0 0 0 0 0 0 0 0 0 0 0 25 8 0 0 0
0 1 0 0 0 0 0 0 0 0 0 0 0 0 0 4 69 7 0 0 2 0
8 11 0 0 0 0 0 0 0 0 0 0 0 0 0 0 0 0 2 0 46 5
72 14 1 0 0 0 0 0 21 23 4 0 0 0 18 13 0 0 0 25 40 52
236 66 21 16 2 0 0 0 0 0 0 0 0 1 13 49 45 34 45 44 13 39
30 14 26 28 8 0 0 0 0 0 0 0 0 0 7 23 68 68 57 65 24 25
0 0 11 25 9 0 0 0 0 0 0 0 0 0 17 46 124 66 42 18 31 59
5 0 0 9 0 0 0 0 0 0 0 0 0 25 138 148 95 73 52 75 73 68
85 23 12 28 27 11 16 4 0 11 43 13 19 157 63 12 4 1 9 11 2 13
155 83 95 127 72 75 58 16 7 53 8 26 74 60 19 29 0 0 0 0 0 0
323 241 223 156 130 158 209 191 155 56 36 139 50 115 176 14 0 0 0 0 1 0
450 402 273 221 214 288 246 159 58 83 43 39 66 69 134 5 0 0 0 0 0 0
399 362 282 279 383 447 440 227 312 152 105 0 58 10 0 0 0 0 0 0 0 0
523 375 338 437 658 629 269 0 0 9 24 13 0 0 0 0 0 0 0 0 0 0
CIN
0 0 0 0 0 0 0 0 0 0 0 0 0 0 0 -5 0 -239 -88 0 0 0
0 -72 0 0 0 0 0 0 0 0 0 0 0 0 0 -154 -151 -180 0 0 -10 0
-474 -528 0 0 0 0 0 0 0 0 0 0 0 0 0 0 0 0 -14 0 -83 -40
-433 -472 -232 0 0 0 0 0 -288 -224 -161 0 0 0 -109 -97 0 0 0 -103 -84 -59
-385 -480 -504 -482 -435 0 0 0 0 0 0 0 0 -11 -182 -119 -119 -51 -60 -74 -109 -83
-388 -539 -503 -488 -466 0 0 0 0 0 0 0 0 0 -157 -94 -121 -129 -78 -83 -134 -108
0 0 -514 -465 -434 0 0 0 0 0 0 0 0 0 -107 -100 -138 -133 -94 -104 -114 -104
-392 0 0 -427 -28 0 0 0 0 0 0 0 0 -82 -87 -102 -78 -92 -101 -108 -118 -125
-441 -443 -449 -397 -381 -380 -341 -336 0 -186 -154 -125 -120 -52 -55 -108 -128 -57 -146 -125 -30 -152
-406 -410 -364 -345 -392 -351 -338 -310 -55 -159 -62 -129 -178 -102 -104 -194 0 0 0 0 0 0
-332 -335 -294 -335 -350 -313 -285 -222 -180 -171 -166 -134 -156 -150 -99 -157 0 0 0 0 -55 0
-305 -279 -292 -312 -315 -304 -252 -215 -253 -160 -204 -168 -136 -177 -112 -183 0 0 0 0 0 0
-282 -254 -276 -292 -288 -196 -202 -216 -166 -168 -226 -14 -150 -112 0 0 0 0 0 0 0 0
-220 -223 -241 -232 -203 -191 -267 0 0 -203 -197 -191 -9 0 0 0 0 0 0 0 0 0
Wind_Speed
8 5 4 5 3 3 3 4 4 5 5 4 3 3 4 2 2 2 4 5 4 2
8 7 6 6 5 4 4 4 6 6 5 4 3 2 1 2 3 1 3 4 5 3
8 8 7 6 7 6 5 4 5 5 5 4 4 4 2 2 4 5 4 4 5 4
8 8 8 7 7 6 5 5 4 5 5 6 5 5 4 5 6 5 4 4 6 7
8 8 8 7 8 7 7 5 6 6 6 6 6 6 5 6 5 5 6 6 5 7
9 9 9 8 7 7 7 7 6 6 6 7 7 6 6 7 7 6 7 7 6 7
11 10 9 8 8 8 7 7 7 7 7 7 7 6 7 6 6 7 7 6 6 7
12 9 9 8 8 8 7 7 7 7 7 7 5 5 7 5 5 5 6 6 6 6
9 8 10 10 10 8 8 7 6 7 7 7 4 6 9 7 5 5 5 6 7 6
11 10 12 12 8 9 9 6 7 7 7 7 6 8 10 8 5 6 6 5 5 6
14 14 12 10 10 9 5 7 8 6 6 6 6 10 9 8 6 5 5 4 5 5
14 13 10 10 9 9 5 5 3 1 5 5 9 8 7 6 4 5 5 4 6 5
12 11 12 12 11 10 4 5 6 6 5 8 7 8 8 7 1 2 3 4 5 2
8 14 15 13 7 6 5 6 5 3 6 5 8 7 10 3 1 2 2 4 4 3
Wind_Direction
165 181 170 169 167 169 182 182 182 192 190 214 266 299 284 255 254 198 198 181 197 192
169 165 168 171 168 181 195 187 182 191 195 215 246 271 316 224 232 197 202 208 194 198
172 162 169 167 181 180 204 224 205 208 214 227 231 251 252 240 243 213 230 215 209 203
180 178 166 179 189 193 206 224 223 230 233 238 245 255 257 259 253 248 254 233 216 223
174 178 175 186 193 194 207 208 212 221 228 240 241 233 226 245 253 242 258 248 233 234
182 181 182 187 193 195 202 217 228 228 239 247 242 244 246 240 244 233 236 241 224 237
183 183 179 179 191 197 200 210 222 234 239 239 250 252 253 249 246 245 244 249 233 233
190 176 177 183 199 204 205 211 217 229 241 248 248 248 244 237 222 240 266 273 261 246
181 179 193 198 203 203 215 216 219 236 243 253 252 253 203 199 220 241 241 260 269 261
180 199 202 204 199 211 218 202 222 230 226 247 250 239 226 214 220 235 249 274 289 291
190 206 202 200 209 217 201 203 218 228 259 241 250 239 228 232 235 264 290 284 281 277
196 196 193 206 208 214 193 188 112 106 293 307 278 258 243 211 247 273 300 302 291 288
194 197 201 207 205 212 169 163 157 207 236 268 262 266 230 218 203 290 288 302 297 279
197 206 206 203 181 160 118 109 107 223 239 244 224 227 234 217 152 242 308 302 299 258